[[{"header":{"parameterUnit":"m.s-1","parameterCategory":1,"la1":30.2991,"la2":30.254,"lo1":-89.0895,"lo2":-89.0444,"dy":0.0017,"dx":0.0017,"nx":28,"ny":28,"refTime":"2024-09-27T03:00:00:Z","depth":0,"parameterNumber":2,"parameterNumberName":"U-component_of_WINDS"},"data":[0,0,0,0,0,0,0,0,0,0,0,0,0,0,0,0,0,0,0,0,0,0,0,0,0,0,0,0,0,0,0,0,0,0,0,0,0,0,0,0,0,0,0,0,0,0,0,0,0,0,0,0,0,0,0,0,0,0,4.6613,4.6615,0,4.6806,4.6808,4.681,4.6734,4.6729,4.6725,4.672,4.6924,4.6933,4.6943,0,0,0,0,0,0,0,0,0,0,0,0,0,4.6183,4.6191,4.6613,4.6615,4.6617,4.6805,4.6808,4.6811,4.6735,4.6729,4.6724,4.6718,4.6921,4.6932,4.6944,0,0,0,0,0,0,0,0,0,0,0,0,0,4.6372,4.6194,4.6612,4.6602,4.6603,4.6805,4.6808,4.6811,4.6736,4.6729,4.6722,4.6716,4.6917,4.6931,4.6945,4.717,0,0,4.6989,4.6996,0,0,0,0,0,0,0,0,4.6361,4.6388,4.6601,4.6603,4.6605,4.6739,4.6731,4.6932,4.6737,4.6686,4.672,4.6712,4.6868,4.6886,4.6937,4.718,4.7189,4.6991,4.6999,4.7006,4.701,0,0,0,0,0,0,0,4.6348,4.6379,4.6689,4.6604,4.6607,4.6589,4.6609,4.6769,4.6813,4.669,4.6684,4.6708,4.6868,4.6924,4.6942,4.7192,4.699,4.7003,4.7012,4.7018,4.7627,4.7634,0,0,0,0,0,0,4.6334,4.6369,4.6683,4.6695,4.6464,4.6602,4.6624,4.6703,4.6811,4.6821,4.6714,4.6704,4.6902,4.6925,4.6949,4.7218,4.7006,4.7019,4.7027,4.762,4.7629,4.7637,0,0,0,0,0,0,4.6325,4.6363,4.6675,4.6531,4.6569,4.6617,4.6706,4.671,4.6766,4.6829,4.6837,4.6762,4.6898,4.6928,4.7115,4.7224,4.7026,4.7039,4.7611,4.7622,4.7633,4.7759,0,0,0,0,0,0,4.6313,4.636,4.6445,4.6533,4.6577,4.6838,4.6713,4.6719,4.679,4.6779,4.6877,4.6886,4.6895,4.7094,4.7129,4.724,4.705,4.7601,4.7616,4.7629,4.7745,4.7773,4.7797,0,0,0,0,0,4.6298,4.6475,4.645,4.6488,4.6684,4.6844,4.6869,4.6874,4.6799,4.6886,4.6926,4.6883,4.7206,4.7114,4.7153,4.727,4.7594,4.7612,4.7628,4.7734,4.7768,4.7796,0,0,0,0,0,0,4.64,4.6486,4.6459,4.6669,4.675,4.6831,4.694,4.691,4.7015,4.7,4.7003,4.7026,4.7218,4.7263,4.7158,4.7493,4.7389,4.7415,4.7456,4.7489,4.7514,4.7499,4.7062,0,0,0,0,0,4.6447,4.6568,4.6637,4.6816,4.6857,4.6892,4.6962,4.6958,4.7042,4.7076,4.713,4.7215,4.7335,4.7415,4.7529,4.7752,4.7771,4.7851,4.7877,4.7898,4.792,4.804,4.8075,4.7692,4.7692,4.7692,0,0,4.6545,4.6607,4.6684,4.6838,4.6899,4.7026,4.6921,4.706,4.7153,4.7098,4.7276,4.732,4.7414,4.7619,4.7713,4.7663,4.803,4.792,4.7936,4.7947,4.8061,4.8097,4.8129,4.7704,4.7702,4.77,0,0,4.6788,4.6848,4.7002,4.7066,4.7159,4.7181,4.7218,4.7304,4.733,4.7509,4.7469,4.7582,4.779,4.7858,4.792,4.8189,4.8153,4.8226,4.8361,4.8477,4.8508,4.8534,4.8629,4.8663,4.8248,4.8248,4.8248,0,4.6899,4.7086,4.7086,4.7227,4.7296,4.7249,4.7406,4.7468,4.7596,4.7645,4.7587,4.7845,4.7906,4.8126,4.8191,4.8243,4.8286,4.8214,4.8503,4.853,4.8555,4.8645,4.868,4.8256,4.8255,4.8255,4.8254,0,4.7217,4.7348,4.7461,4.7583,4.7665,4.7813,4.7836,4.7919,4.7909,4.7937,4.812,4.8191,4.8318,4.837,4.8362,4.8589,4.8555,4.85,4.8396,4.8599,4.8684,4.8719,4.8268,4.8265,4.8263,4.8261,0,0,4.753,4.7648,4.769,4.7743,4.7844,4.7945,4.8092,4.8214,4.8285,4.8375,4.8498,4.8674,4.8623,4.8694,4.8694,4.8796,4.9002,4.8729,4.8731,4.8776,4.9255,4.9294,4.9334,4.898,4.8986,4.8991,4.9247,0,4.7779,4.8034,4.8037,4.8272,4.8392,4.8349,4.8477,4.8553,4.8583,4.8691,4.8725,4.8849,4.8774,4.8816,4.8915,4.8956,4.9098,4.8938,4.9094,4.91,4.907,4.9379,4.9421,4.9658,4.928,4.9286,4.929,0,4.8104,4.8202,4.8447,4.8528,4.8579,4.8693,4.8805,4.8908,4.8994,4.9008,4.9087,4.907,4.9221,4.9113,4.932,4.9211,4.9275,4.9305,4.9314,4.9328,4.9206,4.94,4.9734,4.9769,4.9342,4.9338,4.9334,0,4.8306,4.8499,4.867,4.8718,4.8818,4.8899,4.8944,4.9023,4.9095,4.9194,4.9241,4.9357,4.942,4.9511,4.9526,4.9446,4.9734,4.9628,4.9751,4.9751,4.9812,4.9808,5.0161,4.9857,4.9856,4.9855,4.9855,0,4.8583,4.8735,4.8762,4.8867,4.9036,4.9039,4.9207,4.9246,4.9316,4.9429,4.9401,4.9508,4.9522,4.9634,4.9647,4.9816,4.9846,4.9862,4.9864,4.9864,4.9862,4.9905,4.9889,4.9865,4.9863,4.9861,4.9859,0,4.8837,4.8861,4.9044,4.9123,4.9146,4.9267,4.9334,4.9436,4.9462,4.9606,4.964,4.9683,4.9812,4.9837,4.999,4.9999,5.02,5.0186,5.017,5.0168,5.0289,5.0277,5.0682,5.0734,5.0397,5.04,5.0403,0,4.9011,4.9127,4.9216,4.9289,4.9338,4.9456,4.9529,4.9537,4.9615,4.972,4.9809,4.9934,5.0035,5.0244,5.029,5.0407,5.0394,5.0528,5.0412,5.0408,5.0395,5.0387,5.0398,5.055,5.0554,5.0557,5.0559,0,4.9318,4.9324,4.943,4.954,4.9628,4.9716,4.9799,4.9861,4.988,4.9969,5.0099,5.0177,5.0333,5.0458,5.0574,5.0623,5.0595,5.0595,5.063,5.063,5.0616,5.0624,5.023,5.0586,5.0583,5.0581,5.058,5.0579,4.9537,4.9636,4.9715,4.9833,4.9896,4.9974,5.0072,5.0111,5.0219,5.0344,5.0343,5.0486,5.0568,5.0721,5.0777,5.0889,5.0847,5.0897,5.091,5.0922,5.0932,5.0599,5.0911,5.091,5.091,5.0909,5.0908,0,4.9841,4.9889,4.9998,5.0113,5.0207,5.0171,5.0261,5.0342,5.0467,5.0545,5.0644,5.0793,5.0914,5.0969,5.1089,5.1168,5.1158,5.1199,5.1193,5.1204,5.0964,5.0921,5.1205,5.1205,5.1205,5.1205,5.1205,5.1205,5.001,5.0176,5.0191,5.0388,5.0435,5.0573,5.0627,5.0699,5.0761,5.0929,5.1028,5.1062,5.1131,5.1255,5.1365,5.1378,5.1423,5.147,5.1477,5.1251,5.1221,5.1192,5.1152,5.148,5.148,5.1707,5.1709,5.1711]},{"header":{"parameterUnit":"m.s-1","parameterCategory":1,"la1":30.2991,"la2":30.254,"lo1":-89.0895,"lo2":-89.0444,"dy":0.0017,"dx":0.0017,"nx":28,"ny":28,"refTime":"2024-09-27T03:00:00:Z","depth":0,"parameterNumber":3,"parameterNumberName":"V-component_of_WINDS"},"data":[0,0,0,0,0,0,0,0,0,0,0,0,0,0,0,0,0,0,0,0,0,0,0,0,0,0,0,0,0,0,0,0,0,0,0,0,0,0,0,0,0,0,0,0,0,0,0,0,0,0,0,0,0,0,0,0,0,0,2.2575,2.2575,0,2.2622,2.2622,2.2623,2.2561,2.2559,2.2557,2.2555,2.2607,2.2611,2.2614,0,0,0,0,0,0,0,0,0,0,0,0,0,2.2435,2.2438,2.2574,2.2575,2.2576,2.2621,2.2622,2.2623,2.2562,2.2559,2.2556,2.2554,2.2606,2.261,2.2614,0,0,0,0,0,0,0,0,0,0,0,0,0,2.2491,2.2439,2.2574,2.2551,2.2549,2.2621,2.2622,2.2623,2.2562,2.2559,2.2555,2.2552,2.2605,2.261,2.2615,2.2714,0,0,2.2631,2.2633,0,0,0,0,0,0,0,0,2.2487,2.2496,2.2553,2.2552,2.2551,2.2582,2.2592,2.2654,2.2563,2.2557,2.2555,2.2551,2.2602,2.2607,2.2623,2.2717,2.2719,2.2631,2.2635,2.2637,2.2638,0,0,0,0,0,0,0,2.2484,2.2493,2.2593,2.2554,2.2553,2.2539,2.2543,2.2604,2.2598,2.2558,2.2553,2.2559,2.26,2.2619,2.2624,2.272,2.2631,2.2636,2.2639,2.2641,2.2898,2.2901,0,0,0,0,0,0,2.2482,2.2491,2.2592,2.2595,2.251,2.2544,2.2549,2.2575,2.2597,2.2597,2.2562,2.2556,2.2611,2.2618,2.2626,2.2744,2.2637,2.2642,2.2645,2.2894,2.2899,2.2903,0,0,0,0,0,0,2.2479,2.2492,2.259,2.2541,2.2553,2.255,2.2581,2.2578,2.2596,2.26,2.26,2.2581,2.2609,2.2618,2.2693,2.2745,2.2644,2.2649,2.289,2.2895,2.2901,2.2981,0,0,0,0,0,0,2.2476,2.2491,2.2528,2.2543,2.2556,2.2655,2.2584,2.2581,2.2605,2.2598,2.2618,2.2619,2.2607,2.2685,2.2698,2.275,2.2653,2.2885,2.2892,2.2899,2.2974,2.2989,2.3001,0,0,0,0,0,2.2471,2.255,2.253,2.2543,2.2601,2.2658,2.2666,2.2649,2.2609,2.2647,2.265,2.2618,2.2737,2.2693,2.2707,2.2762,2.2882,2.289,2.2898,2.2968,2.2986,2.3001,0,0,0,0,0,0,2.2543,2.2551,2.253,2.2615,2.2636,2.2647,2.2695,2.2669,2.2703,2.2695,2.2674,2.268,2.2759,2.2768,2.2719,2.2859,2.2803,2.2814,2.2851,2.2868,2.2882,2.2878,2.2657,0,0,0,0,0,2.2568,2.2612,2.2618,2.2693,2.2704,2.2698,2.2722,2.2707,2.2729,2.2738,2.2746,2.2769,2.2812,2.284,2.288,2.2974,2.2979,2.3019,2.3033,2.3044,2.3055,2.3106,2.3124,2.293,2.293,2.293,0,0,2.2622,2.2632,2.2662,2.2708,2.2722,2.2769,2.2706,2.2758,2.2794,2.2746,2.2816,2.2823,2.2848,2.2933,2.2971,2.2943,2.3109,2.3055,2.3064,2.3068,2.3116,2.3135,2.3151,2.2935,2.2934,2.2933,0,0,2.2744,2.2756,2.282,2.2835,2.2858,2.2853,2.2868,2.2883,2.2886,2.2955,2.2921,2.2963,2.3037,2.3056,2.3075,2.3204,2.3177,2.3218,2.329,2.3341,2.3356,2.3369,2.3416,2.3433,2.3228,2.3228,2.3228,0,2.2809,2.2877,2.2856,2.2911,2.2933,2.2891,2.2956,2.2972,2.3007,2.3024,2.2991,2.3083,2.3096,2.3185,2.3217,2.3234,2.3251,2.3216,2.3355,2.3369,2.3381,2.3425,2.3443,2.3233,2.3232,2.3232,2.3231,0,2.2956,2.3004,2.3053,2.3086,2.3113,2.3173,2.3163,2.3193,2.3176,2.3175,2.3247,2.3262,2.3303,2.3323,2.3308,2.341,2.3392,2.3358,2.3301,2.3405,2.3446,2.3463,2.324,2.3238,2.3237,2.3236,0,0,2.3126,2.3145,2.3164,2.3179,2.32,2.3237,2.3296,2.3335,2.3362,2.3387,2.3436,2.3499,2.3467,2.349,2.3476,2.352,2.3622,2.348,2.348,2.3507,2.3737,2.3763,2.3783,2.3603,2.3607,2.3609,2.3735,0,2.3248,2.3347,2.333,2.3427,2.3472,2.3432,2.3483,2.3503,2.3503,2.3542,2.3543,2.3588,2.3543,2.3556,2.3597,2.3601,2.3668,2.3591,2.365,2.3653,2.3646,2.3805,2.3833,2.3951,2.3751,2.3754,2.3756,0,2.3404,2.3434,2.3535,2.3549,2.3568,2.3614,2.3648,2.3686,2.3707,2.3704,2.3729,2.3707,2.3766,2.3708,2.379,2.3738,2.3761,2.3767,2.3771,2.3777,2.3711,2.3815,2.3988,2.4006,2.3781,2.3779,2.3777,0,2.3519,2.3584,2.3653,2.3667,2.3685,2.3718,2.3728,2.3745,2.377,2.3801,2.3817,2.3855,2.3876,2.3907,2.3896,2.3854,2.3981,2.3921,2.3982,2.3982,2.4011,2.401,2.4191,2.4025,2.4025,2.4024,2.4024,0,2.3658,2.3722,2.3705,2.3747,2.3818,2.3798,2.3869,2.3873,2.389,2.3933,2.3902,2.3944,2.3927,2.3968,2.3961,2.403,2.404,2.4041,2.4038,2.4044,2.4044,2.4059,2.4051,2.4029,2.4028,2.4027,2.4026,0,2.3798,2.3789,2.3861,2.3872,2.3877,2.3928,2.3938,2.3979,2.3976,2.4032,2.4044,2.4041,2.4088,2.408,2.4133,2.4128,2.4215,2.4202,2.4208,2.4205,2.4266,2.4261,2.4464,2.449,2.4307,2.4309,2.431,0,2.3887,2.3935,2.3951,2.3977,2.3989,2.4032,2.4056,2.4039,2.4066,2.4094,2.4132,2.4175,2.421,2.4287,2.429,2.4331,2.4319,2.4387,2.4325,2.4329,2.4321,2.4318,2.4323,2.44,2.4402,2.4404,2.4405,0,2.4048,2.4041,2.4077,2.4112,2.4142,2.4169,2.4193,2.4217,2.4201,2.4234,2.4281,2.4307,2.436,2.4405,2.4442,2.4453,2.4428,2.4425,2.4441,2.4448,2.4449,2.445,2.4242,2.442,2.4419,2.4418,2.4417,2.4416,2.4165,2.4206,2.4224,2.4265,2.4281,2.4304,2.4343,2.4345,2.4383,2.4424,2.4412,2.4465,2.4486,2.4533,2.4549,2.4591,2.4566,2.4589,2.4595,2.4602,2.4609,2.4442,2.4598,2.4597,2.4597,2.4597,2.4596,0,2.4325,2.4333,2.4372,2.4406,2.4439,2.441,2.4435,2.4465,2.4512,2.4533,2.4567,2.4621,2.4664,2.4671,2.4712,2.4745,2.4734,2.4756,2.4754,2.4757,2.4629,2.4611,2.4764,2.4764,2.4764,2.4764,2.4764,2.4764,2.4411,2.4479,2.4474,2.455,2.4558,2.461,2.4627,2.4648,2.4665,2.4726,2.4761,2.4765,2.478,2.4822,2.486,2.4861,2.4878,2.4905,2.4902,2.4783,2.4766,2.475,2.4733,2.4909,2.4909,2.5026,2.5027,2.5028]}]]